Location: Tauranga
(37.6860°S, 176.1670°E)
Time: 17:11:46
(UTC+13:00)

ISS - Pass Details

Date: 02 February 2019
Orbit: 403 x 411 km, 51.6° (Epoch: 20 February)

Event Time Altitude Azimuth Distance (km) Brightness Sun altitude
Exits shadow 04:31:00 44° 215° (SW) 590 -3.0 -20.5°
Drops below altitude 10° 04:34:14 10° 141° (SE) 1,498 0.2 -20.1°
Sets 04:36:24 0° 134° (SE) 2,364 1.7 -19.7°
